Time,TemperatureF,DewpointF,PressureIn,WindDirection,WindDirectionDegrees,WindSpeedMPH,WindSpeedGustMPH,Humidity,HourlyPrecipIn,Conditions,Clouds,dailyrainin,SoftwareType,DateUTC
2013-08-10 00:00:00,60.4,60.4,29.12,ENE,77,0.0,0.0,100,0.00,,---,0.00,VWS V14.01,2013-08-10 05:00:00,
2013-08-10 00:05:00,60.1,60.1,29.12,ENE,77,0.0,0.0,100,0.00,,---,0.00,VWS V14.01,2013-08-10 05:05:00,
2013-08-10 00:10:00,59.9,59.9,29.12,ENE,77,0.0,0.0,100,0.00,,---,0.00,VWS V14.01,2013-08-10 05:10:00,
2013-08-10 00:15:00,59.5,59.5,29.12,ENE,77,0.0,0.0,100,0.00,,---,0.00,VWS V14.01,2013-08-10 05:15:00,
2013-08-10 00:20:00,59.2,59.2,29.12,SSE,160,0.0,0.0,100,0.00,,---,0.00,VWS V14.01,2013-08-10 05:20:00,
2013-08-10 00:25:00,59.0,59.0,29.12,SW,226,2.7,3.1,100,0.00,,---,0.00,VWS V14.01,2013-08-10 05:25:00,
2013-08-10 00:30:00,58.8,58.8,29.12,SW,226,0.0,0.0,100,0.00,,---,0.00,VWS V14.01,2013-08-10 05:30:00,
2013-08-10 00:35:00,59.0,59.0,29.12,SW,215,0.0,0.0,100,0.00,,---,0.00,VWS V14.01,2013-08-10 05:35:00,
2013-08-10 00:40:00,59.0,59.0,29.12,SW,215,0.0,0.0,100,0.00,,---,0.00,VWS V14.01,2013-08-10 05:40:00,
2013-08-10 00:45:00,59.0,59.0,29.12,SW,215,0.0,0.0,100,0.00,,---,0.00,VWS V14.01,2013-08-10 05:45:00,
2013-08-10 00:50:00,59.2,59.2,29.12,SW,224,0.0,0.0,100,0.00,,---,0.00,VWS V14.01,2013-08-10 05:50:00,
2013-08-10 00:55:00,59.2,59.2,29.12,WSW,247,0.0,0.0,100,0.00,,---,0.00,VWS V14.01,2013-08-10 05:55:00,
2013-08-10 01:00:00,59.2,59.2,29.12,WSW,250,0.0,0.0,100,0.00,,---,0.00,VWS V14.01,2013-08-10 06:00:00,
2013-08-10 01:05:00,59.2,59.2,29.12,WSW,250,0.0,0.0,100,0.00,,---,0.00,VWS V14.01,2013-08-10 06:05:00,
2013-08-10 01:10:00,59.2,59.2,29.12,WSW,250,0.0,0.0,100,0.00,,---,0.00,VWS V14.01,2013-08-10 06:10:00,
2013-08-10 01:15:00,59.2,59.2,29.12,WSW,250,0.0,0.0,100,0.00,,---,0.00,VWS V14.01,2013-08-10 06:15:00,
2013-08-10 01:20:00,59.2,59.2,29.12,WSW,250,0.0,0.0,100,0.00,,---,0.00,VWS V14.01,2013-08-10 06:20:00,
2013-08-10 01:25:00,59.0,59.0,29.12,SSW,210,0.0,0.0,100,0.00,,---,0.00,VWS V14.01,2013-08-10 06:25:00,
2013-08-10 01:30:00,59.0,59.0,29.12,SSW,210,0.0,0.0,100,0.00,,---,0.00,VWS V14.01,2013-08-10 06:30:00,
2013-08-10 01:35:00,59.0,59.0,29.12,SSW,210,0.0,0.0,100,0.00,,---,0.00,VWS V14.01,2013-08-10 06:35:00,
2013-08-10 01:40:00,59.0,59.0,29.12,SSW,210,0.0,0.0,100,0.00,,---,0.00,VWS V14.01,2013-08-10 06:40:00,
2013-08-10 01:45:00,59.2,59.2,29.12,SSW,210,0.0,0.0,100,0.00,,---,0.00,VWS V14.01,2013-08-10 06:45:00,
2013-08-10 01:50:00,59.2,59.2,29.12,SSW,210,0.0,0.0,100,0.00,,---,0.00,VWS V14.01,2013-08-10 06:50:00,
2013-08-10 01:55:00,59.0,59.0,29.12,SSW,210,0.0,0.0,100,0.00,,---,0.00,VWS V14.01,2013-08-10 06:55:00,
2013-08-10 02:00:00,59.0,59.0,29.12,SSW,210,0.0,0.0,100,0.00,,---,0.00,VWS V14.01,2013-08-10 07:00:00,
2013-08-10 02:05:00,59.2,59.2,29.12,SSW,210,0.0,0.0,100,0.00,,---,0.00,VWS V14.01,2013-08-10 07:05:00,
2013-08-10 02:10:00,59.2,59.2,29.12,SSW,210,0.0,0.0,100,0.00,,---,0.00,VWS V14.01,2013-08-10 07:10:00,
2013-08-10 02:15:00,59.2,59.2,29.12,SSW,210,0.0,0.0,100,0.00,,---,0.00,VWS V14.01,2013-08-10 07:15:00,
2013-08-10 02:20:00,59.2,59.2,29.12,SSW,210,0.0,0.0,100,0.00,,---,0.00,VWS V14.01,2013-08-10 07:20:00,
2013-08-10 02:25:00,59.2,59.2,29.12,SSW,210,0.0,0.0,100,0.00,,---,0.00,VWS V14.01,2013-08-10 07:25:00,
2013-08-10 02:30:00,59.2,59.2,29.12,SSW,210,0.0,0.0,100,0.00,,---,0.00,VWS V14.01,2013-08-10 07:30:00,
2013-08-10 02:35:00,59.2,59.2,29.12,SSW,210,0.0,0.0,100,0.00,,---,0.00,VWS V14.01,2013-08-10 07:35:00,
2013-08-10 02:40:00,59.2,59.2,29.12,SSW,210,0.0,0.0,100,0.00,,---,0.00,VWS V14.01,2013-08-10 07:40:00,
2013-08-10 02:45:00,59.2,59.2,29.12,SSW,210,0.0,0.0,100,0.00,,---,0.00,VWS V14.01,2013-08-10 07:45:00,
2013-08-10 02:50:00,59.0,59.0,29.15,SSW,210,0.0,0.0,100,0.00,,---,0.00,VWS V14.01,2013-08-10 07:50:00,
2013-08-10 02:55:00,59.0,59.0,29.15,SSW,210,0.0,0.0,100,0.00,,---,0.00,VWS V14.01,2013-08-10 07:55:00,
2013-08-10 03:00:00,59.0,59.0,29.15,SSW,210,0.0,0.0,100,0.00,,---,0.00,VWS V14.01,2013-08-10 08:00:00,
2013-08-10 03:05:00,59.2,59.2,29.15,SSW,210,0.0,0.0,100,0.00,,---,0.00,VWS V14.01,2013-08-10 08:05:00,
2013-08-10 03:10:00,59.2,59.2,29.15,SSW,210,0.0,0.0,100,0.00,,---,0.00,VWS V14.01,2013-08-10 08:10:00,
2013-08-10 03:15:00,59.2,59.2,29.15,SSW,210,0.0,0.0,100,0.00,,---,0.00,VWS V14.01,2013-08-10 08:15:00,
2013-08-10 03:20:00,59.2,59.2,29.15,SSW,210,0.0,0.0,100,0.00,,---,0.00,VWS V14.01,2013-08-10 08:20:00,
2013-08-10 03:25:00,59.0,59.0,29.15,SSW,210,0.0,0.0,100,0.00,,---,0.00,VWS V14.01,2013-08-10 08:25:00,
2013-08-10 03:30:00,59.0,59.0,29.15,SSW,210,0.0,0.0,100,0.00,,---,0.00,VWS V14.01,2013-08-10 08:30:00,
2013-08-10 03:35:00,59.2,59.2,29.15,SSW,210,0.0,0.0,100,0.00,,---,0.00,VWS V14.01,2013-08-10 08:35:00,
2013-08-10 03:40:00,59.2,59.2,29.15,SSW,210,0.0,0.0,100,0.00,,---,0.00,VWS V14.01,2013-08-10 08:40:00,
2013-08-10 03:45:00,59.2,59.2,29.15,SSW,210,0.0,0.0,100,0.00,,---,0.00,VWS V14.01,2013-08-10 08:45:00,
2013-08-10 03:50:00,59.2,59.2,29.15,SSW,210,0.0,0.0,100,0.00,,---,0.00,VWS V14.01,2013-08-10 08:50:00,
2013-08-10 03:55:00,59.2,59.2,29.15,SSW,210,0.0,0.0,100,0.00,,---,0.00,VWS V14.01,2013-08-10 08:55:00,
2013-08-10 04:00:00,59.2,59.2,29.15,SSW,210,0.0,0.0,100,0.00,,---,0.00,VWS V14.01,2013-08-10 09:00:00,
2013-08-10 04:05:00,59.2,59.2,29.15,SSW,210,0.0,0.0,100,0.00,,---,0.00,VWS V14.01,2013-08-10 09:05:00,
2013-08-10 04:10:00,59.0,59.0,29.15,SSW,210,0.0,0.0,100,0.00,,---,0.00,VWS V14.01,2013-08-10 09:10:00,
2013-08-10 04:15:00,59.0,59.0,29.15,SSW,210,0.0,0.0,100,0.00,,---,0.00,VWS V14.01,2013-08-10 09:15:00,
2013-08-10 04:20:00,59.0,59.0,29.15,SSW,210,0.0,0.0,100,0.00,,---,0.00,VWS V14.01,2013-08-10 09:20:00,
2013-08-10 04:25:00,59.0,59.0,29.15,SSW,210,0.0,0.0,100,0.00,,---,0.00,VWS V14.01,2013-08-10 09:25:00,
2013-08-10 04:30:00,59.0,59.0,29.15,SSW,210,0.0,0.0,100,0.00,,---,0.00,VWS V14.01,2013-08-10 09:30:00,
2013-08-10 04:35:00,59.0,59.0,29.15,SSW,210,0.0,0.0,100,0.00,,---,0.00,VWS V14.01,2013-08-10 09:35:00,
2013-08-10 04:40:00,59.0,59.0,29.15,SSW,210,0.0,0.0,100,0.00,,---,0.00,VWS V14.01,2013-08-10 09:40:00,
2013-08-10 04:45:00,59.0,59.0,29.15,SSW,210,0.0,0.0,100,0.00,,---,0.00,VWS V14.01,2013-08-10 09:45:00,
2013-08-10 04:50:00,59.0,59.0,29.15,SSW,210,0.0,0.0,100,0.00,,---,0.00,VWS V14.01,2013-08-10 09:50:00,
2013-08-10 04:55:00,59.0,59.0,29.15,SSW,212,0.0,0.0,100,0.00,,---,0.00,VWS V14.01,2013-08-10 09:55:00,
2013-08-10 05:00:00,59.0,59.0,29.15,SW,218,0.0,0.0,100,0.00,,---,0.00,VWS V14.01,2013-08-10 10:00:00,
2013-08-10 05:05:00,59.0,59.0,29.15,SW,218,0.0,0.0,100,0.00,,---,0.00,VWS V14.01,2013-08-10 10:05:00,
2013-08-10 05:10:00,59.2,59.2,29.15,SW,218,0.0,0.0,100,0.00,,---,0.00,VWS V14.01,2013-08-10 10:10:00,
2013-08-10 05:15:00,59.2,59.2,29.15,SW,218,0.0,0.0,100,0.00,,---,0.00,VWS V14.01,2013-08-10 10:15:00,
2013-08-10 05:20:00,59.2,59.2,29.15,SW,218,0.0,0.0,100,0.00,,---,0.00,VWS V14.01,2013-08-10 10:20:00,
2013-08-10 05:25:00,59.4,59.4,29.15,SW,218,0.0,0.0,100,0.00,,---,0.00,VWS V14.01,2013-08-10 10:25:00,
2013-08-10 05:30:00,59.4,59.4,29.15,SW,218,0.0,0.0,100,0.00,,---,0.00,VWS V14.01,2013-08-10 10:30:00,
2013-08-10 05:35:00,59.4,59.4,29.15,SW,218,0.0,0.0,100,0.00,,---,0.00,VWS V14.01,2013-08-10 10:35:00,
2013-08-10 05:40:00,59.4,59.4,29.15,SW,218,0.0,0.0,100,0.00,,---,0.00,VWS V14.01,2013-08-10 10:40:00,
2013-08-10 05:45:00,59.4,59.4,29.15,SW,218,0.0,0.0,100,0.00,,---,0.00,VWS V14.01,2013-08-10 10:45:00,
2013-08-10 05:50:00,59.4,59.4,29.18,SW,218,0.0,0.0,100,0.00,,---,0.00,VWS V14.01,2013-08-10 10:50:00,
2013-08-10 05:55:00,59.4,59.4,29.18,SW,218,0.0,0.0,100,0.00,,---,0.00,VWS V14.01,2013-08-10 10:55:00,
2013-08-10 06:00:00,59.4,59.4,29.18,SW,218,0.0,0.0,100,0.00,,---,0.00,VWS V14.01,2013-08-10 11:00:00,
2013-08-10 06:05:00,59.4,59.4,29.18,SW,218,0.0,0.0,100,0.00,,---,0.00,VWS V14.01,2013-08-10 11:05:00,
2013-08-10 06:10:00,59.4,59.4,29.18,SW,218,0.0,0.0,100,0.00,,---,0.00,VWS V14.01,2013-08-10 11:10:00,
2013-08-10 06:15:00,59.4,59.4,29.18,SW,218,0.0,0.0,100,0.00,,---,0.00,VWS V14.01,2013-08-10 11:15:00,
2013-08-10 06:20:00,59.4,59.4,29.18,SW,218,0.0,0.0,100,0.00,,---,0.00,VWS V14.01,2013-08-10 11:20:00,
2013-08-10 06:25:00,59.4,59.4,29.18,SW,218,0.0,0.0,100,0.00,,---,0.00,VWS V14.01,2013-08-10 11:25:00,
2013-08-10 06:30:00,59.4,59.4,29.18,SW,218,0.0,0.0,100,0.00,,---,0.00,VWS V14.01,2013-08-10 11:30:00,
2013-08-10 06:35:00,59.5,59.5,29.18,SW,218,0.0,0.0,100,0.00,,---,0.00,VWS V14.01,2013-08-10 11:35:00,
2013-08-10 06:40:00,59.5,59.5,29.18,SW,218,0.0,0.0,100,0.00,,---,0.00,VWS V14.01,2013-08-10 11:40:00,
2013-08-10 06:45:00,59.5,59.5,29.18,SW,218,0.0,0.0,100,0.00,,---,0.00,VWS V14.01,2013-08-10 11:45:00,
2013-08-10 06:50:00,59.5,59.5,29.18,SW,218,0.0,0.0,100,0.00,,---,0.00,VWS V14.01,2013-08-10 11:50:00,
2013-08-10 06:55:00,59.5,59.5,29.18,SW,218,0.0,0.0,100,0.00,,---,0.00,VWS V14.01,2013-08-10 11:55:00,
2013-08-10 07:00:00,59.5,59.5,29.18,SW,218,0.0,0.0,100,0.00,,---,0.00,VWS V14.01,2013-08-10 12:00:00,
2013-08-10 07:05:00,59.7,59.7,29.18,SW,218,0.0,0.0,100,0.00,,---,0.00,VWS V14.01,2013-08-10 12:05:00,
2013-08-10 07:10:00,59.7,59.7,29.18,SW,218,0.0,0.0,100,0.00,,---,0.00,VWS V14.01,2013-08-10 12:10:00,
2013-08-10 07:15:00,59.7,59.7,29.18,SW,218,0.0,0.0,100,0.00,,---,0.00,VWS V14.01,2013-08-10 12:15:00,
2013-08-10 07:19:00,59.9,59.9,29.18,SW,220,0.0,0.0,100,0.00,,---,0.00,VWS V14.01,2013-08-10 12:19:00,
2013-08-10 07:24:00,60.1,60.1,29.18,SW,220,0.0,0.0,100,0.00,,---,0.00,VWS V14.01,2013-08-10 12:24:00,
2013-08-10 07:29:00,60.1,60.1,29.18,SW,220,0.0,0.0,100,0.00,,---,0.00,VWS V14.01,2013-08-10 12:29:00,
2013-08-10 07:34:00,60.3,60.3,29.18,SW,220,0.0,0.0,100,0.00,,---,0.00,VWS V14.01,2013-08-10 12:34:00,
2013-08-10 07:39:00,60.4,60.4,29.18,SW,220,0.0,0.0,100,0.00,,---,0.00,VWS V14.01,2013-08-10 12:39:00,
2013-08-10 07:44:00,60.6,60.6,29.18,SW,220,0.0,0.0,100,0.00,,---,0.00,VWS V14.01,2013-08-10 12:44:00,
2013-08-10 07:49:00,60.8,60.8,29.18,SW,220,0.0,0.0,100,0.00,,---,0.00,VWS V14.01,2013-08-10 12:49:00,
2013-08-10 07:54:00,61.0,61.0,29.18,SW,220,0.0,0.0,100,0.00,,---,0.00,VWS V14.01,2013-08-10 12:54:00,
2013-08-10 07:59:00,61.2,61.2,29.18,SW,220,0.0,0.0,100,0.00,,---,0.00,VWS V14.01,2013-08-10 12:59:00,
2013-08-10 08:04:00,61.3,61.3,29.18,SW,220,0.0,0.0,100,0.00,,---,0.00,VWS V14.01,2013-08-10 13:04:00,
2013-08-10 08:09:00,61.5,61.5,29.18,WNW,284,0.0,0.0,100,0.00,,---,0.00,VWS V14.01,2013-08-10 13:09:00,
2013-08-10 08:14:00,61.7,61.7,29.18,WNW,284,0.0,0.0,100,0.00,,---,0.00,VWS V14.01,2013-08-10 13:14:00,
2013-08-10 08:19:00,61.7,61.7,29.18,WNW,284,0.0,0.0,100,0.00,,---,0.00,VWS V14.01,2013-08-10 13:19:00,
2013-08-10 08:24:00,61.7,61.7,29.18,WNW,284,0.0,0.0,100,0.00,,---,0.00,VWS V14.01,2013-08-10 13:24:00,
2013-08-10 08:29:00,61.9,61.9,29.18,WNW,284,0.0,0.0,100,0.00,,---,0.00,VWS V14.01,2013-08-10 13:29:00,
2013-08-10 08:34:00,62.1,62.1,29.18,NE,45,0.0,0.0,100,0.00,,---,0.00,VWS V14.01,2013-08-10 13:34:00,
2013-08-10 08:39:00,62.2,62.2,29.18,North,357,0.0,0.0,100,0.00,,---,0.00,VWS V14.01,2013-08-10 13:39:00,
2013-08-10 08:44:00,62.6,62.6,29.18,North,357,0.0,0.0,100,0.00,,---,0.00,VWS V14.01,2013-08-10 13:44:00,
2013-08-10 08:49:00,62.8,62.8,29.18,North,3,0.0,0.0,100,0.00,,---,0.00,VWS V14.01,2013-08-10 13:49:00,
2013-08-10 08:54:00,63.0,63.0,29.18,NE,43,0.0,0.0,100,0.00,,---,0.00,VWS V14.01,2013-08-10 13:54:00,
2013-08-10 08:59:00,63.1,63.1,29.18,North,1,0.0,0.0,100,0.00,,---,0.00,VWS V14.01,2013-08-10 13:59:00,
2013-08-10 09:04:00,63.3,63.3,29.18,North,1,0.0,0.0,100,0.00,,---,0.00,VWS V14.01,2013-08-10 14:04:00,
2013-08-10 09:09:00,63.5,63.5,29.18,North,1,0.0,0.0,100,0.00,,---,0.00,VWS V14.01,2013-08-10 14:09:00,
2013-08-10 09:14:00,63.7,63.7,29.18,North,1,0.0,0.0,100,0.00,,---,0.00,VWS V14.01,2013-08-10 14:14:00,
2013-08-10 09:19:00,63.9,63.9,29.18,North,1,0.0,0.0,100,0.00,,---,0.00,VWS V14.01,2013-08-10 14:19:00,
2013-08-10 09:24:00,64.0,64.0,29.18,NE,36,3.1,3.1,100,0.00,,---,0.00,VWS V14.01,2013-08-10 14:24:00,
2013-08-10 09:29:00,64.2,64.2,29.18,NE,43,2.2,3.1,100,0.00,,---,0.00,VWS V14.01,2013-08-10 14:29:00,
2013-08-10 09:34:00,64.4,64.4,29.18,ENE,72,4.0,4.9,100,0.00,,---,0.00,VWS V14.01,2013-08-10 14:34:00,
2013-08-10 09:39:00,64.6,64.6,29.18,ENE,62,4.9,4.9,100,0.00,,---,0.00,VWS V14.01,2013-08-10 14:39:00,
2013-08-10 09:44:00,64.6,64.6,29.18,NE,47,0.0,2.7,100,0.00,,---,0.00,VWS V14.01,2013-08-10 14:44:00,
2013-08-10 09:49:00,64.9,64.9,29.18,NE,48,4.9,4.9,100,0.00,,---,0.00,VWS V14.01,2013-08-10 14:49:00,
2013-08-10 09:54:00,65.1,65.1,29.18,ENE,67,2.7,2.7,100,0.00,,---,0.00,VWS V14.01,2013-08-10 14:54:00,
2013-08-10 09:59:00,65.5,65.5,29.18,NNE,32,0.0,0.0,100,0.00,,---,0.00,VWS V14.01,2013-08-10 14:59:00,
2013-08-10 10:04:00,65.7,65.4,29.18,NE,34,0.0,0.0,99,0.00,,---,0.00,VWS V14.01,2013-08-10 15:04:00,
2013-08-10 10:09:00,66.0,65.7,29.18,East,88,3.6,4.0,99,0.00,,---,0.00,VWS V14.01,2013-08-10 15:09:00,
2013-08-10 10:14:00,66.4,64.3,29.18,NE,52,2.7,2.7,93,0.00,,---,0.00,VWS V14.01,2013-08-10 15:14:00,
2013-08-10 10:19:00,66.6,63.5,29.18,NNE,27,0.0,2.2,90,0.00,,---,0.00,VWS V14.01,2013-08-10 15:19:00,
2013-08-10 10:24:00,66.9,61.9,29.18,North,8,0.0,0.0,84,0.00,,---,0.00,VWS V14.01,2013-08-10 15:24:00,
2013-08-10 10:29:00,66.9,58.8,29.18,West,278,0.0,0.0,75,0.00,,---,0.00,VWS V14.01,2013-08-10 15:29:00,
2013-08-10 10:34:00,67.1,60.0,29.21,West,264,0.0,0.0,78,0.00,,---,0.00,VWS V14.01,2013-08-10 15:34:00,
2013-08-10 10:39:00,67.3,60.2,29.21,WNW,301,0.0,0.0,78,0.00,,---,0.00,VWS V14.01,2013-08-10 15:39:00,
2013-08-10 10:44:00,67.6,59.4,29.21,West,260,0.0,0.0,75,0.00,,---,0.00,VWS V14.01,2013-08-10 15:44:00,
2013-08-10 10:49:00,67.8,57.3,29.21,South,181,0.0,0.0,69,0.00,,---,0.00,VWS V14.01,2013-08-10 15:49:00,
2013-08-10 10:54:00,67.8,57.3,29.21,West,265,3.6,3.6,69,0.00,,---,0.00,VWS V14.01,2013-08-10 15:54:00,
2013-08-10 10:59:00,68.0,57.5,29.21,WSW,255,0.0,0.0,69,0.00,,---,0.00,VWS V14.01,2013-08-10 15:59:00,
2013-08-10 11:04:00,68.0,57.5,29.21,NW,305,2.7,2.7,69,0.00,,---,0.00,VWS V14.01,2013-08-10 16:04:00,
2013-08-10 11:09:00,68.4,57.8,29.21,NNE,25,2.7,2.7,69,0.00,,---,0.00,VWS V14.01,2013-08-10 16:09:00,
2013-08-10 11:14:00,68.7,58.2,29.21,WSW,246,0.0,0.0,69,0.00,,---,0.00,VWS V14.01,2013-08-10 16:14:00,
2013-08-10 11:19:00,68.9,58.3,29.18,SW,215,0.0,0.0,69,0.00,,---,0.00,VWS V14.01,2013-08-10 16:19:00,
2013-08-10 11:24:00,69.1,57.3,29.18,West,272,2.7,4.0,66,0.00,,---,0.00,VWS V14.01,2013-08-10 16:24:00,
2013-08-10 11:29:00,69.4,58.8,29.18,West,276,3.1,3.6,69,0.00,,---,0.00,VWS V14.01,2013-08-10 16:29:00,
2013-08-10 11:34:00,69.6,55.1,29.21,West,268,0.0,0.0,60,0.00,,---,0.00,VWS V14.01,2013-08-10 16:34:00,
2013-08-10 11:39:00,69.8,57.9,29.21,West,259,3.1,4.0,66,0.00,,---,0.00,VWS V14.01,2013-08-10 16:39:00,
2013-08-10 11:44:00,69.8,57.9,29.21,WNW,285,2.2,2.7,66,0.00,,---,0.00,VWS V14.01,2013-08-10 16:44:00,
2013-08-10 11:49:00,70.0,54.1,29.21,SW,226,3.1,3.6,57,0.00,,---,0.00,VWS V14.01,2013-08-10 16:49:00,
2013-08-10 11:54:00,70.0,51.0,29.21,WNW,298,0.0,0.0,51,0.00,,---,0.00,VWS V14.01,2013-08-10 16:54:00,
2013-08-10 11:59:00,70.3,51.4,29.21,WNW,300,0.0,0.0,51,0.00,,---,0.00,VWS V14.01,2013-08-10 16:59:00,
2013-08-10 12:04:00,70.7,51.7,29.21,WNW,289,4.0,4.0,51,0.00,,---,0.00,VWS V14.01,2013-08-10 17:04:00,
2013-08-10 12:09:00,70.9,51.9,29.21,NW,309,3.1,3.1,51,0.00,,---,0.00,VWS V14.01,2013-08-10 17:09:00,
2013-08-10 12:14:00,71.2,52.2,29.21,WSW,253,3.1,3.1,51,0.00,,---,0.00,VWS V14.01,2013-08-10 17:14:00,
2013-08-10 12:19:00,71.6,50.9,29.18,SW,222,0.0,0.0,48,0.00,,---,0.00,VWS V14.01,2013-08-10 17:19:00,
2013-08-10 12:24:00,72.1,56.1,29.18,NNE,12,5.8,6.3,57,0.00,,---,0.00,VWS V14.01,2013-08-10 17:24:00,
2013-08-10 12:29:00,73.2,52.4,29.18,NNE,19,0.0,0.0,48,0.00,,---,0.00,VWS V14.01,2013-08-10 17:29:00,
2013-08-10 12:34:00,73.0,48.6,29.18,WNW,286,0.0,0.0,42,0.00,,---,0.00,VWS V14.01,2013-08-10 17:34:00,
2013-08-10 12:39:00,72.9,56.8,29.18,West,266,3.6,4.0,57,0.00,,---,0.00,VWS V14.01,2013-08-10 17:39:00,
2013-08-10 12:44:00,73.2,48.8,29.18,SW,234,3.1,3.6,42,0.00,,---,0.00,VWS V14.01,2013-08-10 17:44:00,
2013-08-10 12:49:00,72.7,48.3,29.18,NNW,339,2.7,2.7,42,0.00,,---,0.00,VWS V14.01,2013-08-10 17:49:00,
2013-08-10 12:54:00,72.5,48.1,29.18,West,260,6.3,6.3,42,0.00,,---,0.00,VWS V14.01,2013-08-10 17:54:00,
2013-08-10 12:59:00,72.5,48.1,29.18,WNW,298,0.0,0.0,42,0.00,,---,0.00,VWS V14.01,2013-08-10 17:59:00,
2013-08-10 13:04:00,72.5,48.1,29.18,WNW,285,0.0,0.0,42,0.00,,---,0.00,VWS V14.01,2013-08-10 18:04:00,
2013-08-10 13:09:00,72.1,47.8,29.18,WNW,296,0.0,0.0,42,0.00,,---,0.00,VWS V14.01,2013-08-10 18:09:00,
2013-08-10 13:14:00,71.8,47.5,29.18,WNW,296,0.0,0.0,42,0.00,,---,0.00,VWS V14.01,2013-08-10 18:14:00,
2013-08-10 13:19:00,71.6,47.3,29.18,WNW,284,4.0,4.0,42,0.00,,---,0.00,VWS V14.01,2013-08-10 18:19:00,
2013-08-10 13:24:00,71.8,47.5,29.18,WNW,296,4.0,5.4,42,0.00,,---,0.00,VWS V14.01,2013-08-10 18:24:00,
2013-08-10 13:29:00,71.6,47.3,29.18,SW,231,3.1,3.1,42,0.00,,---,0.00,VWS V14.01,2013-08-10 18:29:00,
2013-08-10 13:34:00,71.4,52.4,29.18,NNW,346,2.2,3.6,51,0.00,,---,0.00,VWS V14.01,2013-08-10 18:34:00,
2013-08-10 13:39:00,71.2,52.2,29.18,West,270,5.8,5.8,51,0.00,,---,0.00,VWS V14.01,2013-08-10 18:39:00,
2013-08-10 13:44:00,71.1,52.0,29.18,West,260,2.7,2.7,51,0.00,,---,0.00,VWS V14.01,2013-08-10 18:44:00,
2013-08-10 13:49:00,70.9,51.9,29.18,NW,315,3.1,4.0,51,0.00,,---,0.00,VWS V14.01,2013-08-10 18:49:00,
2013-08-10 13:54:00,71.2,52.2,29.18,West,268,3.6,3.6,51,0.00,,---,0.00,VWS V14.01,2013-08-10 18:54:00,
2013-08-10 13:59:00,71.1,46.8,29.18,NNW,340,3.1,3.6,42,0.00,,---,0.00,VWS V14.01,2013-08-10 18:59:00,
2013-08-10 14:04:00,71.2,47.0,29.18,WNW,294,2.7,3.6,42,0.00,,---,0.00,VWS V14.01,2013-08-10 19:04:00,
2013-08-10 14:09:00,71.2,47.0,29.18,WNW,300,2.7,3.6,42,0.00,,---,0.00,VWS V14.01,2013-08-10 19:09:00,
2013-08-10 14:14:00,71.1,46.8,29.18,NW,308,5.4,5.4,42,0.00,,---,0.00,VWS V14.01,2013-08-10 19:14:00,
2013-08-10 14:19:00,71.1,46.8,29.18,NNE,18,4.0,4.9,42,0.00,,---,0.00,VWS V14.01,2013-08-10 19:19:00,
2013-08-10 14:23:00,71.1,46.8,29.18,NNW,329,3.1,3.6,42,0.00,,---,0.00,VWS V14.01,2013-08-10 19:23:00,
2013-08-10 14:28:00,71.1,52.0,29.18,WSW,251,3.1,3.6,51,0.00,,---,0.00,VWS V14.01,2013-08-10 19:28:00,
2013-08-10 14:33:00,70.9,46.7,29.18,WNW,284,3.6,5.4,42,0.00,,---,0.00,VWS V14.01,2013-08-10 19:33:00,
2013-08-10 14:38:00,70.7,46.5,29.18,NW,322,2.7,3.6,42,0.00,,---,0.00,VWS V14.01,2013-08-10 19:38:00,
2013-08-10 14:43:00,70.5,46.3,29.18,WSW,252,3.1,4.9,42,0.00,,---,0.00,VWS V14.01,2013-08-10 19:43:00,
2013-08-10 14:48:00,70.7,46.5,29.18,West,260,3.6,4.9,42,0.00,,---,0.00,VWS V14.01,2013-08-10 19:48:00,
2013-08-10 14:53:00,70.7,51.7,29.18,West,274,4.0,4.9,51,0.00,,---,0.00,VWS V14.01,2013-08-10 19:53:00,
2013-08-10 14:58:00,70.7,46.5,29.18,West,260,2.2,4.0,42,0.00,,---,0.00,VWS V14.01,2013-08-10 19:58:00,
2013-08-10 15:03:00,70.5,46.3,29.18,WNW,287,0.0,4.0,42,0.00,,---,0.00,VWS V14.01,2013-08-10 20:03:00,
2013-08-10 15:08:00,70.5,51.5,29.18,WSW,255,2.7,3.6,51,0.00,,---,0.00,VWS V14.01,2013-08-10 20:08:00,
2013-08-10 15:13:00,70.7,51.7,29.18,NW,324,4.9,4.9,51,0.00,,---,0.00,VWS V14.01,2013-08-10 20:13:00,
2013-08-10 15:18:00,70.7,46.5,29.18,North,353,2.2,2.7,42,0.00,,---,0.00,VWS V14.01,2013-08-10 20:18:00,
2013-08-10 15:23:00,71.1,46.8,29.18,NW,326,3.1,3.1,42,0.00,,---,0.00,VWS V14.01,2013-08-10 20:23:00,
2013-08-10 15:28:00,71.1,46.8,29.18,NW,323,2.2,4.9,42,0.00,,---,0.00,VWS V14.01,2013-08-10 20:28:00,
2013-08-10 15:33:00,71.1,46.8,29.18,WSW,248,4.0,7.6,42,0.00,,---,0.00,VWS V14.01,2013-08-10 20:33:00,
2013-08-10 15:38:00,71.1,46.8,29.18,NW,306,3.6,5.4,42,0.00,,---,0.00,VWS V14.01,2013-08-10 20:38:00,
2013-08-10 15:43:00,70.9,46.7,29.18,NW,318,3.1,6.3,42,0.00,,---,0.00,VWS V14.01,2013-08-10 20:43:00,
2013-08-10 15:48:00,70.9,46.7,29.18,WNW,298,2.2,5.4,42,0.00,,---,0.00,VWS V14.01,2013-08-10 20:48:00,
2013-08-10 15:53:00,70.9,46.7,29.18,West,277,3.1,3.6,42,0.00,,---,0.00,VWS V14.01,2013-08-10 20:53:00,
2013-08-10 15:58:00,70.7,51.7,29.18,WSW,244,3.1,4.0,51,0.00,,---,0.00,VWS V14.01,2013-08-10 20:58:00,
2013-08-10 16:03:00,70.5,46.3,29.18,WNW,297,3.1,4.0,42,0.00,,---,0.00,VWS V14.01,2013-08-10 21:03:00,
2013-08-10 16:08:00,70.7,46.5,29.18,West,270,3.1,4.0,42,0.00,,---,0.00,VWS V14.01,2013-08-10 21:08:00,
2013-08-10 16:13:00,70.5,46.3,29.18,NNW,336,0.0,0.0,42,0.00,,---,0.00,VWS V14.01,2013-08-10 21:13:00,
2013-08-10 16:18:00,70.7,46.5,29.18,NNE,22,4.0,4.0,42,0.00,,---,0.00,VWS V14.01,2013-08-10 21:18:00,
2013-08-10 16:23:00,71.1,52.0,29.18,North,357,4.0,4.0,51,0.00,,---,0.00,VWS V14.01,2013-08-10 21:23:00,
2013-08-10 16:28:00,71.1,52.0,29.18,NNE,32,4.0,4.0,51,0.00,,---,0.00,VWS V14.01,2013-08-10 21:28:00,
2013-08-10 16:33:00,71.2,52.2,29.18,NW,318,2.2,4.9,51,0.00,,---,0.00,VWS V14.01,2013-08-10 21:33:00,
2013-08-10 16:38:00,71.4,47.2,29.18,North,3,3.6,4.0,42,0.00,,---,0.00,VWS V14.01,2013-08-10 21:38:00,
2013-08-10 16:43:00,71.4,47.2,29.18,NNW,333,3.6,4.0,42,0.00,,---,0.00,VWS V14.01,2013-08-10 21:43:00,
2013-08-10 16:48:00,71.2,47.0,29.15,North,9,2.7,3.1,42,0.00,,---,0.00,VWS V14.01,2013-08-10 21:48:00,
2013-08-10 16:53:00,70.9,46.7,29.15,NW,319,4.0,4.0,42,0.00,,---,0.00,VWS V14.01,2013-08-10 21:53:00,
2013-08-10 16:58:00,70.9,46.7,29.15,North,357,2.7,2.7,42,0.00,,---,0.00,VWS V14.01,2013-08-10 21:58:00,
2013-08-10 17:03:00,70.9,46.7,29.15,NE,45,3.6,4.0,42,0.00,,---,0.00,VWS V14.01,2013-08-10 22:03:00,
2013-08-10 17:08:00,71.1,46.8,29.15,North,353,2.7,6.3,42,0.00,,---,0.00,VWS V14.01,2013-08-10 22:08:00,
2013-08-10 17:13:00,71.1,46.8,29.15,NNW,340,3.1,3.1,42,0.00,,---,0.00,VWS V14.01,2013-08-10 22:13:00,
2013-08-10 17:18:00,71.1,46.8,29.15,NNE,22,0.0,2.7,42,0.00,,---,0.00,VWS V14.01,2013-08-10 22:18:00,
2013-08-10 17:23:00,70.9,46.7,29.15,North,353,2.7,2.7,42,0.00,,---,0.00,VWS V14.01,2013-08-10 22:23:00,
2013-08-10 17:28:00,70.9,46.7,29.15,NW,318,2.2,2.7,42,0.00,,---,0.00,VWS V14.01,2013-08-10 22:28:00,
2013-08-10 17:33:00,70.9,46.7,29.15,North,353,3.1,3.1,42,0.00,,---,0.00,VWS V14.01,2013-08-10 22:33:00,
2013-08-10 17:38:00,70.5,46.3,29.15,NNW,333,3.6,3.6,42,0.00,,---,0.00,VWS V14.01,2013-08-10 22:38:00,
2013-08-10 17:43:00,70.2,46.0,29.15,West,268,0.0,2.2,42,0.00,,---,0.00,VWS V14.01,2013-08-10 22:43:00,
2013-08-10 17:48:00,69.8,45.7,29.15,WNW,301,2.7,2.7,42,0.00,,---,0.00,VWS V14.01,2013-08-10 22:48:00,
2013-08-10 17:53:00,69.6,50.7,29.15,West,274,2.2,2.7,51,0.00,,---,0.00,VWS V14.01,2013-08-10 22:53:00,
2013-08-10 17:58:00,69.3,50.4,29.15,West,277,0.0,3.1,51,0.00,,---,0.00,VWS V14.01,2013-08-10 22:58:00,
2013-08-10 18:03:00,69.3,50.4,29.15,NW,319,4.0,4.0,51,0.00,,---,0.00,VWS V14.01,2013-08-10 23:03:00,
2013-08-10 18:08:00,69.4,50.5,29.15,NNW,337,2.7,4.0,51,0.00,,---,0.00,VWS V14.01,2013-08-10 23:08:00,
2013-08-10 18:13:00,69.4,55.0,29.15,West,280,2.2,2.7,60,0.00,,---,0.00,VWS V14.01,2013-08-10 23:13:00,
2013-08-10 18:18:00,69.1,50.2,29.15,West,277,0.0,0.0,51,0.00,,---,0.00,VWS V14.01,2013-08-10 23:18:00,
2013-08-10 18:23:00,68.7,49.9,29.15,WNW,296,0.0,0.0,51,0.00,,---,0.00,VWS V14.01,2013-08-10 23:23:00,
2013-08-10 18:28:00,68.7,49.9,29.15,WNW,295,0.0,0.0,51,0.00,,---,0.00,VWS V14.01,2013-08-10 23:28:00,
2013-08-10 18:33:00,68.5,54.1,29.15,WSW,247,0.0,0.0,60,0.00,,---,0.00,VWS V14.01,2013-08-10 23:33:00,
2013-08-10 18:38:00,68.4,57.8,29.15,WSW,245,0.0,0.0,69,0.00,,---,0.00,VWS V14.01,2013-08-10 23:38:00,
2013-08-10 18:43:00,68.2,61.1,29.15,WSW,245,0.0,0.0,78,0.00,,---,0.00,VWS V14.01,2013-08-10 23:43:00,
2013-08-10 18:48:00,68.0,60.9,29.15,WSW,245,0.0,0.0,78,0.00,,---,0.00,VWS V14.01,2013-08-10 23:48:00,
2013-08-10 18:53:00,67.6,64.6,29.15,WSW,245,0.0,0.0,90,0.00,,---,0.00,VWS V14.01,2013-08-10 23:53:00,
2013-08-10 18:58:00,67.5,66.3,29.15,WSW,245,0.0,0.0,96,0.00,,---,0.00,VWS V14.01,2013-08-10 23:58:00,
2013-08-10 19:03:00,67.3,67.0,29.15,WSW,245,0.0,0.0,99,0.00,,---,0.00,VWS V14.01,2013-08-11 00:03:00,
2013-08-10 19:08:00,66.9,66.6,29.15,WSW,245,0.0,0.0,99,0.00,,---,0.00,VWS V14.01,2013-08-11 00:08:00,
2013-08-10 19:13:00,66.6,66.3,29.15,WSW,245,0.0,0.0,99,0.00,,---,0.00,VWS V14.01,2013-08-11 00:13:00,
2013-08-10 19:18:00,66.4,66.4,29.12,WSW,245,0.0,0.0,100,0.00,,---,0.00,VWS V14.01,2013-08-11 00:18:00,
2013-08-10 19:23:00,66.0,66.0,29.12,WSW,245,0.0,0.0,100,0.00,,---,0.00,VWS V14.01,2013-08-11 00:23:00,
2013-08-10 19:28:00,65.8,65.8,29.12,WSW,245,0.0,0.0,100,0.00,,---,0.00,VWS V14.01,2013-08-11 00:28:00,
2013-08-10 19:33:00,65.7,65.7,29.15,WSW,245,0.0,0.0,100,0.00,,---,0.00,VWS V14.01,2013-08-11 00:33:00,
2013-08-10 19:38:00,65.5,65.5,29.15,WSW,245,0.0,0.0,100,0.00,,---,0.00,VWS V14.01,2013-08-11 00:38:00,
2013-08-10 19:43:00,65.1,65.1,29.15,WSW,245,0.0,0.0,100,0.00,,---,0.00,VWS V14.01,2013-08-11 00:43:00,
2013-08-10 19:48:00,64.8,64.8,29.15,WSW,245,0.0,0.0,100,0.00,,---,0.00,VWS V14.01,2013-08-11 00:48:00,
2013-08-10 19:53:00,64.4,64.4,29.15,WSW,245,0.0,0.0,100,0.00,,---,0.00,VWS V14.01,2013-08-11 00:53:00,
2013-08-10 19:58:00,64.2,64.2,29.15,WSW,245,0.0,0.0,100,0.00,,---,0.00,VWS V14.01,2013-08-11 00:58:00,
2013-08-10 20:03:00,63.9,63.9,29.15,WSW,245,0.0,0.0,100,0.00,,---,0.00,VWS V14.01,2013-08-11 01:03:00,
2013-08-10 20:08:00,63.5,63.5,29.15,WSW,245,0.0,0.0,100,0.00,,---,0.00,VWS V14.01,2013-08-11 01:08:00,
2013-08-10 20:13:00,63.1,63.1,29.15,WSW,245,0.0,0.0,100,0.00,,---,0.00,VWS V14.01,2013-08-11 01:13:00,
2013-08-10 20:18:00,62.8,62.8,29.15,WSW,245,0.0,0.0,100,0.00,,---,0.00,VWS V14.01,2013-08-11 01:18:00,
2013-08-10 20:23:00,62.6,62.6,29.15,WSW,245,0.0,0.0,100,0.00,,---,0.00,VWS V14.01,2013-08-11 01:23:00,
2013-08-10 20:28:00,62.2,62.2,29.15,WSW,245,0.0,0.0,100,0.00,,---,0.00,VWS V14.01,2013-08-11 01:28:00,
2013-08-10 20:33:00,61.9,61.9,29.15,WSW,245,0.0,0.0,100,0.00,,---,0.00,VWS V14.01,2013-08-11 01:33:00,
2013-08-10 20:38:00,61.7,61.7,29.15,WSW,245,0.0,0.0,100,0.00,,---,0.00,VWS V14.01,2013-08-11 01:38:00,
2013-08-10 20:43:00,61.3,61.3,29.15,WSW,245,0.0,0.0,100,0.00,,---,0.00,VWS V14.01,2013-08-11 01:43:00,
2013-08-10 20:48:00,61.0,61.0,29.15,WSW,245,0.0,0.0,100,0.00,,---,0.00,VWS V14.01,2013-08-11 01:48:00,
2013-08-10 20:53:00,60.6,60.6,29.15,WSW,245,0.0,0.0,100,0.00,,---,0.00,VWS V14.01,2013-08-11 01:53:00,
2013-08-10 20:58:00,60.4,60.4,29.15,WSW,247,0.0,0.0,100,0.00,,---,0.00,VWS V14.01,2013-08-11 01:58:00,
2013-08-10 21:03:00,60.1,60.1,29.15,WSW,247,0.0,0.0,100,0.00,,---,0.00,VWS V14.01,2013-08-11 02:03:00,
2013-08-10 21:08:00,59.9,59.9,29.15,WSW,247,0.0,0.0,100,0.00,,---,0.00,VWS V14.01,2013-08-11 02:08:00,
2013-08-10 21:13:00,59.7,59.7,29.15,WSW,247,0.0,0.0,100,0.00,,---,0.00,VWS V14.01,2013-08-11 02:13:00,
2013-08-10 21:18:00,59.5,59.5,29.15,WSW,246,0.0,0.0,100,0.00,,---,0.00,VWS V14.01,2013-08-11 02:18:00,
2013-08-10 21:23:00,59.4,59.4,29.15,WSW,246,0.0,0.0,100,0.00,,---,0.00,VWS V14.01,2013-08-11 02:23:00,
2013-08-10 21:28:00,59.2,59.2,29.15,West,265,0.0,0.0,100,0.00,,---,0.00,VWS V14.01,2013-08-11 02:28:00,
2013-08-10 21:33:00,59.0,59.0,29.15,West,265,0.0,0.0,100,0.00,,---,0.00,VWS V14.01,2013-08-11 02:33:00,
2013-08-10 21:38:00,58.6,58.6,29.15,West,265,0.0,0.0,100,0.00,,---,0.00,VWS V14.01,2013-08-11 02:38:00,
2013-08-10 21:43:00,58.3,58.3,29.15,West,265,0.0,0.0,100,0.00,,---,0.00,VWS V14.01,2013-08-11 02:43:00,
2013-08-10 21:48:00,58.1,58.1,29.15,West,265,0.0,0.0,100,0.00,,---,0.00,VWS V14.01,2013-08-11 02:48:00,
2013-08-10 21:53:00,58.1,58.1,29.15,West,265,0.0,0.0,100,0.00,,---,0.00,VWS V14.01,2013-08-11 02:53:00,
2013-08-10 21:58:00,57.7,57.7,29.15,West,265,0.0,0.0,100,0.00,,---,0.00,VWS V14.01,2013-08-11 02:58:00,
2013-08-10 22:03:00,57.6,57.6,29.15,West,265,0.0,0.0,100,0.00,,---,0.00,VWS V14.01,2013-08-11 03:03:00,
2013-08-10 22:08:00,57.6,57.6,29.15,West,265,0.0,0.0,100,0.00,,---,0.00,VWS V14.01,2013-08-11 03:08:00,
2013-08-10 22:13:00,57.4,57.4,29.15,West,265,0.0,0.0,100,0.00,,---,0.00,VWS V14.01,2013-08-11 03:13:00,
2013-08-10 22:18:00,57.4,57.4,29.15,West,265,0.0,0.0,100,0.00,,---,0.00,VWS V14.01,2013-08-11 03:18:00,
2013-08-10 22:23:00,57.4,57.4,29.15,West,265,0.0,0.0,100,0.00,,---,0.00,VWS V14.01,2013-08-11 03:23:00,
2013-08-10 22:29:00,57.2,57.2,29.15,West,265,0.0,0.0,100,0.00,,---,0.00,VWS V14.01,2013-08-11 03:29:00,
2013-08-10 22:34:00,57.0,57.0,29.15,West,265,0.0,0.0,100,0.00,,---,0.00,VWS V14.01,2013-08-11 03:34:00,
2013-08-10 22:39:00,56.8,56.8,29.15,West,265,0.0,0.0,100,0.00,,---,0.00,VWS V14.01,2013-08-11 03:39:00,
2013-08-10 22:44:00,56.5,56.5,29.15,West,265,0.0,0.0,100,0.00,,---,0.00,VWS V14.01,2013-08-11 03:44:00,
2013-08-10 22:49:00,56.3,56.3,29.15,West,265,0.0,0.0,100,0.00,,---,0.00,VWS V14.01,2013-08-11 03:49:00,
2013-08-10 22:54:00,56.3,56.3,29.15,West,265,0.0,0.0,100,0.00,,---,0.00,VWS V14.01,2013-08-11 03:54:00,
2013-08-10 22:59:00,56.3,56.3,29.15,West,265,0.0,0.0,100,0.00,,---,0.00,VWS V14.01,2013-08-11 03:59:00,
2013-08-10 23:01:00,56.3,56.3,29.15,West,265,0.0,0.0,100,0.00,,---,0.00,VWS V14.01,2013-08-11 04:01:00,
2013-08-10 23:06:00,56.1,56.1,29.15,West,265,0.0,0.0,100,0.00,,---,0.00,VWS V14.01,2013-08-11 04:06:00,
2013-08-10 23:11:00,55.9,55.9,29.15,West,265,0.0,0.0,100,0.00,,---,0.00,VWS V14.01,2013-08-11 04:11:00,
2013-08-10 23:16:00,55.9,55.9,29.15,West,265,0.0,0.0,100,0.00,,---,0.00,VWS V14.01,2013-08-11 04:16:00,
2013-08-10 23:21:00,55.8,55.8,29.15,West,265,0.0,0.0,100,0.00,,---,0.00,VWS V14.01,2013-08-11 04:21:00,
2013-08-10 23:26:00,55.6,55.6,29.15,West,265,0.0,0.0,100,0.00,,---,0.00,VWS V14.01,2013-08-11 04:26:00,
2013-08-10 23:31:00,55.6,55.6,29.15,West,265,0.0,0.0,100,0.00,,---,0.00,VWS V14.01,2013-08-11 04:31:00,
2013-08-10 23:36:00,55.6,55.6,29.15,West,265,0.0,0.0,100,0.00,,---,0.00,VWS V14.01,2013-08-11 04:36:00,
2013-08-10 23:41:00,55.4,55.4,29.15,West,265,0.0,0.0,100,0.00,,---,0.00,VWS V14.01,2013-08-11 04:41:00,
2013-08-10 23:46:00,55.2,55.2,29.15,West,265,0.0,0.0,100,0.00,,---,0.00,VWS V14.01,2013-08-11 04:46:00,
2013-08-10 23:51:00,55.0,55.0,29.15,West,265,0.0,0.0,100,0.00,,---,0.00,VWS V14.01,2013-08-11 04:51:00,
2013-08-10 23:56:00,55.0,55.0,29.15,West,265,0.0,0.0,100,0.00,,---,0.00,VWS V14.01,2013-08-11 04:56:00,